N12973 KBHM-KGAI

Flight info

Callsign N12973
Flight time N/A
Altitude VFR/035
Route VFR EAST
Aircraft C172/L-VGD/C

Departure

Time 2026-05-05 23:09
Airport Birmingham-Shuttlesworth International Airport (KBHM)

Arrival

Time N/A
Airport Montgomery County Airpark (KGAI)
Time Latitude Longitude Altitude Speed Heading
2026-05-05 22:57 33.55726 -86.77223 612 ft 0 kts 334°
2026-05-05 23:00 33.55725 -86.77225 611 ft 0 kts 172°
2026-05-05 23:00 33.55708 -86.77223 611 ft 3 kts 176°
2026-05-05 23:00 33.55667 -86.77202 609 ft 6 kts 150°
2026-05-05 23:01 33.55665 -86.77201 609 ft 0 kts 143°
2026-05-05 23:02 33.55629 -86.77200 609 ft 12 kts 180°
2026-05-05 23:02 33.55520 -86.77168 606 ft 18 kts 162°
2026-05-05 23:02 33.55424 -86.77059 603 ft 19 kts 81°
2026-05-05 23:03 33.55479 -86.76956 606 ft 12 kts 54°
2026-05-05 23:03 33.55549 -86.76835 607 ft 32 kts 52°
2026-05-05 23:03 33.55754 -86.76473 610 ft 54 kts 57°
2026-05-05 23:03 33.55938 -86.76151 613 ft 40 kts 50°
2026-05-05 23:04 33.56078 -86.75913 614 ft 30 kts 56°
2026-05-05 23:04 33.56185 -86.75728 612 ft 23 kts 57°
2026-05-05 23:04 33.56266 -86.75588 613 ft 18 kts 57°
2026-05-05 23:04 33.56336 -86.75465 616 ft 8 kts 46°
2026-05-05 23:05 33.56348 -86.75446 616 ft 12 kts 53°
2026-05-05 23:05 33.56436 -86.75291 618 ft 33 kts 54°
2026-05-05 23:05 33.56581 -86.75034 623 ft 34 kts 65°
2026-05-05 23:05 33.56620 -86.74830 626 ft 8 kts 59°
2026-05-05 23:06 33.56626 -86.74819 627 ft 7 kts 59°
2026-05-05 23:06 33.56733 -86.74633 629 ft 52 kts 57°
2026-05-05 23:06 33.56929 -86.74291 637 ft 43 kts 54°
2026-05-05 23:06 33.57069 -86.74050 645 ft 26 kts 56°
2026-05-05 23:07 33.57201 -86.73836 657 ft 14 kts 20°
2026-05-05 23:07 33.57269 -86.73862 657 ft 3 kts 323°
2026-05-05 23:08 33.57319 -86.73916 656 ft 18 kts 298°
2026-05-05 23:08 33.57195 -86.74175 645 ft 60 kts 234°
2026-05-05 23:08 33.56911 -86.74669 699 ft 79 kts 224°
2026-05-05 23:08 33.56626 -86.75202 909 ft 75 kts 225°
2026-05-05 23:09 33.56307 -86.75706 1122 ft 71 kts 226°
2026-05-05 23:09 33.56043 -86.76223 1289 ft 76 kts 230°
2026-05-05 23:09 33.55844 -86.76747 1542 ft 68 kts 231°
2026-05-05 23:09 33.55622 -86.77295 1626 ft 79 kts 232°
2026-05-05 23:10 33.55377 -86.77912 1679 ft 81 kts 233°
2026-05-05 23:10 33.55140 -86.78521 1616 ft 82 kts 233°
2026-05-05 23:10 33.54872 -86.79132 1549 ft 81 kts 227°
2026-05-05 23:10 33.54608 -86.79703 1519 ft 78 kts 229°
2026-05-05 23:11 33.54350 -86.80261 1522 ft 75 kts 229°
2026-05-05 23:11 33.54063 -86.80787 1554 ft 76 kts 223°
2026-05-05 23:11 33.54032 -86.81472 1559 ft 100 kts 283°
2026-05-05 23:11 33.54657 -86.82005 1586 ft 114 kts 324°
2026-05-05 23:12 33.55367 -86.82407 1608 ft 117 kts 335°
2026-05-05 23:12 33.56137 -86.82684 1677 ft 117 kts 335°
2026-05-05 23:12 33.56929 -86.82980 1721 ft 118 kts 333°
2026-05-05 23:12 33.57704 -86.83300 1785 ft 116 kts 332°
2026-05-05 23:13 33.58504 -86.83624 1756 ft 126 kts 348°
2026-05-05 23:13 33.59348 -86.83343 1771 ft 126 kts 30°
2026-05-05 23:13 33.60086 -86.82749 1749 ft 126 kts 50°
2026-05-05 23:13 33.60686 -86.82018 1786 ft 123 kts 55°
2026-05-05 23:14 33.61264 -86.81238 1768 ft 125 kts 55°
2026-05-05 23:14 33.61820 -86.80449 1766 ft 123 kts 59°
2026-05-05 23:14 33.62345 -86.79628 1763 ft 124 kts 59°
2026-05-05 23:14 33.62868 -86.78804 1741 ft 126 kts 61°
2026-05-05 23:15 33.63381 -86.77959 1753 ft 124 kts 65°
2026-05-05 23:15 33.63851 -86.77109 1775 ft 120 kts 66°
2026-05-05 23:15 33.64274 -86.76235 1771 ft 120 kts 72°
2026-05-05 23:15 33.64702 -86.75351 1757 ft 124 kts 65°
2026-05-05 23:16 33.65188 -86.74490 1755 ft 124 kts 65°
2026-05-05 23:16 33.65705 -86.73673 1750 ft 123 kts 60°
2026-05-05 23:16 33.66164 -86.72821 1779 ft 118 kts 74°
2026-05-05 23:16 33.66559 -86.71933 1739 ft 121 kts 71°
2026-05-05 23:17 33.67006 -86.71066 1767 ft 125 kts 64°
2026-05-05 23:17 33.67575 -86.70262 1834 ft 123 kts 50°
2026-05-05 23:17 33.68249 -86.69593 1876 ft 124 kts 43°
2026-05-05 23:17 33.68930 -86.68954 1925 ft 125 kts 45°
2026-05-05 23:18 33.69646 -86.68306 1978 ft 132 kts 39°
2026-05-05 23:18 33.70409 -86.67685 1991 ft 139 kts 38°
2026-05-05 23:18 33.71238 -86.67075 1985 ft 143 kts 32°
2026-05-05 23:18 33.72066 -86.66473 1916 ft 134 kts 39°
2026-05-05 23:19 33.72783 -86.65830 1896 ft 128 kts 41°
2026-05-05 23:19 33.73547 -86.65262 1833 ft 124 kts 34°
2026-05-05 23:19 33.74325 -86.64783 1929 ft 128 kts 29°
2026-05-05 23:19 33.75123 -86.64246 1982 ft 131 kts 38°
2026-05-05 23:20 33.75791 -86.63507 1793 ft 135 kts 51°
2026-05-05 23:20 33.76465 -86.62852 1604 ft 115 kts 46°
2026-05-05 23:20 33.77124 -86.62253 1448 ft 128 kts 37°
2026-05-05 23:20 33.77897 -86.61715 1554 ft 125 kts 40°
2026-05-05 23:21 33.78538 -86.61056 1650 ft 125 kts 49°
2026-05-05 23:21 33.79179 -86.60293 1651 ft 129 kts 53°
2026-05-05 23:21 33.79876 -86.59565 1222 ft 127 kts 38°
2026-05-05 23:21 33.80484 -86.59074 1254 ft 87 kts 53°
2026-05-05 23:22 33.80699 -86.58491 1094 ft 71 kts 86°
2026-05-05 23:22 33.80775 -86.57977 1018 ft 54 kts 101°